« Back
NWS Peachtree City, Ga » Text Product » GA Regional Weather Roundup


Printer-friendly Version
Current Version              Previous Versions:   1  2  3  4  5  6  7  8  9  

Regional Weather Roundup

088
ASUS42 KFFC 281203
RWRGA
WEATHER ROUNDUP FOR GEORGIA
NATIONAL WEATHER SERVICE PEACHTREE CITY GA
800 AM EDT TUE JUN 28 2016

NOTE: "FAIR" INDICATES FEW OR NO CLOUDS BELOW 12,000 FEET WITH NO
SIGNIFICANT WEATHER AND/OR OBSTRUCTIONS TO VISIBILITY.

* = USE WITH CAUTION. THE STATIONS MARKED WITH AN ASTERISK MAY NOT
REPORT WEATHER SUCH AS PRECIPITATION, FOG, OR THUNDER AND ARE NOT
QUALITY CONTROLLED BY NWS.

THE REMARK "TC" DENOTES TEMPERATURE READING IN DEGREES CELSIUS.

GAZ001>058-281300-
NORTH GEORGIA

CITY           SKY/WX    TMP DP  RH WIND       PRES   REMARKS
ATLANTA        PTSUNNY   76  70  82 CALM      30.02R
6HR MIN TEMP:  73; 6HR MAX TEMP:  76;

ATHENS         SUNNY     73  72  96 CALM      30.01S FOG
6HR MIN TEMP:  70; 6HR MAX TEMP:  73;

CHAMBLEE       CLOUDY    76  69  79 CALM      30.02R
6HR MIN TEMP:  73; 6HR MAX TEMP:  76;

PEACHTREE CITY SUNNY     73  71  93 CALM      30.02S
6HR MIN TEMP:  69; 6HR MAX TEMP:  73;

ROME           CLOUDY    74  71  91 N5        30.02R
6HR MIN TEMP:  72; 6HR MAX TEMP:  74;

WEST ATLANTA   CLOUDY    74  70  87 CALM      30.01S
6HR MIN TEMP:  72; 6HR MAX TEMP:  74;

GAINESVILLE    CLOUDY    72  69  90 MISG      30.05R
6HR MIN TEMP:  70; 6HR MAX TEMP:  72;

CARTERSVILLE   CLOUDY    72  71  97 CALM      30.03R
6HR MIN TEMP:  71; 6HR MAX TEMP:  72;



CITY           SKY/WX    TMP DP  RH WIND       PRES   REMARKS
DALTON*        CLOUDY    72  72 100 NW7       30.03R
LAWRENCEVILLE* PTSUNNY   72  72 100 CALM      30.02S FOG
MARIETTA       PTSUNNY   74  70  86 CALM      30.03R
KENNESAW*      PTSUNNY   73  66  78 CALM      30.00S
CANTON*        CLOUDY    73  66  78 CALM      30.05R
$$

GAZ059>098-102>109-281300-
CENTRAL GEORGIA

CITY           SKY/WX    TMP DP  RH WIND       PRES   REMARKS
AUGUSTA-BUSH   SUNNY     75  73  93 CALM      29.98R
6HR MIN TEMP:  73; 6HR MAX TEMP:  76;

AUGUSTA-DANIEL SUNNY     78  73  84 SE3       30.00R
6HR MIN TEMP:  76; 6HR MAX TEMP:  78;

COLUMBUS       SUNNY     75  69  81 CALM      30.00R
6HR MIN TEMP:  73; 6HR MAX TEMP:  78;

MACON          SUNNY     76  71  85 W3        29.99R
6HR MIN TEMP:  71; 6HR MAX TEMP:  77;

ROBINS AFB     SUNNY     76  72  86 N3        29.98R


CITY           SKY/WX    TMP DP  RH WIND       PRES   REMARKS
LAGRANGE*      SUNNY     74  74 100 CALM      30.01S
SYLVANIA*      SUNNY     78  75  88 CALM      30.00R
MILLEDGEVILLE* SUNNY     75  73  94 CALM      29.99S
$$

GAZ099>101-110>166-281300-
SOUTH GEORGIA

CITY           SKY/WX    TMP DP  RH WIND       PRES   REMARKS
SAVANNAH       MOSUNNY   78  72  81 CALM      29.99R
6HR MIN TEMP:  73; 6HR MAX TEMP:  78;

VALDOSTA       SUNNY     77  74  90 CALM      29.99S
6HR MIN TEMP:  72; 6HR MAX TEMP:  78;

ALMA           SUNNY     75  72  90 SW6       29.98S
6HR MIN TEMP:  72; 6HR MAX TEMP:  77;

ST SIMONS      SUNNY     78  74  87 MISG      29.98R
6HR MIN TEMP:  74; 6HR MAX TEMP:  78;

FT STEWART     MOSUNNY   75  71  87 CALM      29.97R
ALBANY         SUNNY     76  72  87 W5        30.01R
HUNTER AFB     SUNNY     77  77 100 W1        29.97R
MOODY AFB      SUNNY     78  72  83 W3        29.99R
BRUNSWICK      SUNNY     79  77  94 SW3       30.00R


CITY           SKY/WX    TMP DP  RH WIND       PRES   REMARKS
BAINBRIDGE*    CLOUDY    77  72  83 W5        30.00S
MOULTRIE*      SUNNY     75  73  94 CALM      30.01R
VIDALIA*       SUNNY     77  72  83 SW6       29.99S
WAYCROSS*      SUNNY     79  76  90 W6        29.99S
DOUGLAS*       SUNNY     77  72  83 W3        30.01R
$$




USA.gov is the U.S. government's official web portal to all federal, state and local government web resources and services.